GEFSNE_500_meanwind_108.txt.gz
Wind_Speed
6 4 2 3 5 7 10 12 14 16 18 20 22 22 23 24 25 25 25 26 26 27 27 27 27 27 27 28 28 28 28 28 27 27 27 27 27 27
6 4 2 3 5 7 8 11 13 15 16 18 21 21 23 23 24 24 25 25 26 26 27 27 28 28 28 29 29 29 30 30 30 30 30 30 29 29
7 5 3 3 5 7 8 11 12 14 15 17 19 21 21 22 22 23 24 24 25 26 26 27 28 29 29 30 30 31 31 32 33 33 32 33 32 32
7 5 4 3 4 5 7 9 11 13 15 16 18 19 19 21 21 22 23 23 24 24 26 27 29 30 31 32 32 32 33 33 34 34 34 34 34 34
7 6 4 3 3 5 7 9 10 12 14 15 17 18 19 20 21 22 23 23 24 24 25 26 27 29 31 32 33 33 33 34 34 35 36 36 36 36
8 7 5 4 4 4 6 7 9 11 14 15 17 18 19 20 20 20 21 23 23 24 25 26 27 28 30 32 33 34 34 34 35 36 36 37 37 38
8 7 6 6 6 5 6 7 8 9 12 14 16 18 19 20 20 21 21 22 22 23 24 26 27 28 29 31 32 33 34 35 36 36 36 36 37 37
9 8 7 7 6 7 7 8 8 9 11 13 14 16 18 19 19 20 20 21 22 22 23 24 26 27 28 29 30 32 33 34 35 36 37 37 36 36
10 10 9 8 7 7 8 8 9 9 10 12 13 15 16 17 18 19 20 20 21 22 24 25 25 27 28 30 31 32 33 33 34 35 37 38 38 38
12 11 10 10 9 9 9 9 10 10 11 12 13 14 16 17 18 19 20 21 22 23 24 25 26 26 28 29 30 31 32 33 33 34 35 36 37 38
15 13 12 12 11 11 11 11 10 10 10 11 13 14 15 17 18 19 20 21 22 23 23 24 25 26 27 28 28 29 30 31 32 33 34 36 36 37
17 16 15 14 13 13 12 12 12 12 11 12 13 14 15 16 18 18 19 20 21 22 22 23 24 25 25 27 28 28 29 30 31 32 34 35 35 36
20 18 17 17 16 15 14 14 14 14 13 13 14 15 16 16 17 18 19 20 21 21 22 24 24 25 26 27 28 29 29 30 30 31 32 34 35 35
22 21 20 19 18 17 17 16 16 15 15 15 15 16 16 17 18 18 20 21 22 23 24 25 25 26 26 27 28 29 30 30 30 31 32 33 34 35
25 24 23 22 21 20 19 19 18 18 18 17 17 17 18 18 18 19 20 20 21 22 23 24 25 26 27 27 28 30 31 31 31 32 33 34 35 36
28 27 25 24 23 22 21 21 20 20 20 19 19 19 19 20 20 21 21 21 22 23 24 24 25 26 27 27 28 30 31 32 33 34 34 35 36 36
31 30 28 27 26 25 24 23 22 21 21 21 21 20 20 21 21 22 22 23 23 24 24 24 25 26 27 27 28 29 30 31 33 34 35 36 38 38
34 32 30 29 28 27 26 25 24 23 23 22 22 22 22 22 22 23 23 23 24 25 25 26 26 27 28 28 29 29 30 32 33 34 35 35 37 39
36 34 33 32 31 30 28 27 26 26 25 24 24 23 23 23 23 24 24 24 25 25 26 27 27 28 29 29 30 31 32 32 33 34 35 36 37 38
38 36 35 33 32 32 31 29 28 28 27 26 26 25 25 25 25 25 25 26 26 26 27 27 28 29 30 31 32 33 34 34 34 35 36 37 38 39
40 38 36 35 34 33 32 31 30 29 28 27 27 27 26 26 26 26 26 26 27 27 28 29 30 30 31 32 32 33 35 36 37 37 38 39 40 41
42 40 38 37 36 34 34 32 31 30 30 29 29 28 28 27 27 27 27 28 28 29 29 30 30 31 32 32 33 34 35 36 37 38 39 41 42 42
44 42 40 38 37 36 35 34 32 32 31 30 30 30 29 29 29 29 29 30 30 30 30 31 31 32 32 33 34 35 36 37 38 39 40 42 43 43

GEFSNE_500_meanwind_114.txt.gz
Wind_Speed
9 7 6 5 4 6 7 9 12 15 18 21 23 24 25 25 27 28 29 29 29 29 28 28 28 27 27 27 27 27 26 27 28 28 27 27 28 27
9 8 7 5 5 5 7 9 11 13 16 19 21 22 23 23 24 26 27 27 28 29 29 29 28 28 28 28 29 29 28 28 28 28 28 28 27 27
10 9 7 6 5 6 7 9 11 12 14 17 20 21 22 23 23 24 27 27 28 28 27 28 29 29 29 28 28 28 28 28 28 28 29 30 29 29
11 10 8 8 7 6 7 9 10 12 14 17 18 20 22 23 23 24 26 26 27 28 28 28 29 29 29 29 29 29 30 30 30 30 30 30 31 31
11 10 9 9 8 8 8 9 11 13 14 16 17 19 20 21 23 24 25 26 27 28 28 28 29 29 29 29 29 30 30 31 31 31 31 32 32 33
13 12 11 10 9 9 9 10 12 13 15 16 18 19 20 21 22 23 24 26 27 28 28 28 28 28 29 29 29 30 31 32 32 33 33 33 34 35
15 13 12 11 11 11 11 11 12 13 15 16 18 19 20 21 22 23 24 24 25 26 27 28 28 28 28 29 29 29 30 31 32 33 34 35 36 36
17 16 15 14 13 13 13 13 13 14 15 16 18 19 20 21 22 23 24 25 25 26 27 27 28 28 28 28 29 30 31 31 32 32 33 35 36 37
20 19 18 16 16 15 14 14 14 15 16 17 18 19 20 20 22 23 24 25 26 26 27 27 27 28 29 29 29 30 31 31 32 33 34 34 35 36
23 22 21 20 19 17 16 16 16 16 16 17 18 19 20 20 21 22 24 24 25 26 26 27 27 28 28 28 29 29 29 30 30 31 32 33 34 35
26 24 23 23 22 21 20 19 18 18 18 18 19 19 19 20 21 21 22 23 23 25 25 26 26 27 27 28 27 28 29 29 29 30 30 31 32 33
29 27 26 25 25 24 22 21 20 20 20 19 19 19 19 19 20 21 21 22 23 24 24 25 26 26 27 27 27 27 28 28 29 29 30 30 31 32
32 31 29 28 27 26 25 24 23 23 22 21 21 20 21 20 20 20 21 22 22 23 24 24 25 25 26 26 26 26 26 27 28 29 30 31 31 32
35 34 33 31 30 29 28 27 26 26 24 23 23 22 22 22 21 21 21 21 22 23 23 24 24 25 25 25 26 26 26 27 27 28 30 31 32 32
39 37 36 34 34 32 31 30 29 28 27 26 25 24 24 23 23 23 23 23 22 22 23 23 24 24 25 25 25 25 26 26 27 27 28 30 31 32
42 40 39 38 36 35 34 32 31 31 30 29 28 27 26 25 24 23 23 23 23 23 23 24 24 25 25 26 26 26 26 26 27 28 29 30 30 31
45 44 42 41 39 38 36 35 33 32 31 31 30 29 29 28 27 26 25 25 24 24 24 24 25 25 25 25 25 26 26 27 28 28 29 30 31 31
48 46 45 43 42 40 39 37 36 34 33 32 32 31 30 30 29 28 28 27 27 26 26 25 25 25 26 26 26 26 27 28 28 29 30 31 32 33
51 49 47 45 44 43 41 40 38 37 35 35 33 32 32 31 30 29 29 29 28 28 27 27 27 27 27 26 27 27 27 28 29 29 31 32 32 33
53 51 49 48 46 45 44 42 41 39 38 36 35 34 33 32 31 31 30 29 29 29 29 28 28 28 27 28 28 28 28 29 30 31 32 33 33 34
54 53 52 50 48 47 45 44 43 41 40 38 37 36 35 34 33 32 31 31 30 29 29 29 29 29 29 29 29 29 30 30 31 32 32 33 34 34
55 54 53 52 50 48 47 46 45 43 42 40 38 37 36 35 34 33 32 32 31 30 30 30 30 30 29 29 29 30 31 31 32 32 33 33 34 34
55 54 53 52 50 49 48 47 46 45 43 41 39 38 37 36 34 34 33 32 31 31 31 30 30 30 30 30 30 31 31 32 32 33 33 34 35 35

GEFSNE_500_meanwind_120.txt.gz
Wind_Speed
13 13 12 10 9 9 7 7 8 9 11 13 16 19 19 20 22 24 25 25 25 27 27 27 26 25 25 26 26 26 25 24 24 23 23 23 24 23
14 13 13 11 10 10 8 7 8 8 10 12 15 17 18 20 22 23 24 25 25 26 27 27 27 26 26 26 26 26 26 25 25 25 25 25 25 25
16 15 13 12 12 11 10 9 8 9 10 11 13 16 18 20 21 24 25 25 25 25 26 26 27 27 27 27 27 27 27 27 26 26 26 26 26 26
17 16 15 14 13 13 13 12 11 10 11 12 13 15 17 19 21 23 24 24 25 26 27 27 27 28 28 28 28 28 28 28 28 27 27 27 27 27
19 18 17 16 15 15 14 13 12 12 12 13 15 16 17 19 21 23 23 24 24 25 26 27 28 28 28 28 28 28 28 28 28 28 28 28 28 27
21 20 19 18 17 16 15 15 15 14 14 14 16 17 18 20 21 22 23 24 24 24 25 26 27 28 28 28 28 28 28 28 28 28 28 28 29 29
23 21 20 20 19 18 17 17 17 16 16 17 17 18 19 21 22 23 24 24 24 24 25 26 27 28 28 28 28 28 28 29 29 29 29 29 29 29
26 24 23 22 21 21 20 19 18 19 19 19 19 20 20 21 23 23 24 25 25 25 25 25 27 27 27 28 28 28 28 29 29 29 29 29 29 29
29 28 27 25 24 24 23 22 21 21 20 20 20 21 21 22 23 23 24 24 25 25 25 25 26 26 27 28 28 28 28 28 29 29 29 29 29 29
33 32 30 29 28 27 26 25 25 24 23 22 22 22 22 22 23 24 25 25 26 26 26 26 27 27 27 28 29 29 29 29 29 29 29 30 30 30
36 35 34 33 31 31 30 29 27 27 26 25 25 24 24 24 25 25 25 26 26 26 26 27 27 27 27 28 29 29 29 29 29 29 29 29 30 30
39 38 37 36 34 34 33 32 31 30 29 28 27 27 26 25 26 26 27 27 27 27 27 27 28 27 27 28 28 29 29 29 29 29 29 29 29 29
42 41 40 39 38 37 37 35 34 33 32 31 30 29 28 27 26 26 27 27 28 28 28 28 28 28 27 27 27 27 28 28 28 28 29 29 29 29
44 43 42 42 41 40 39 38 37 36 35 34 33 32 30 29 28 28 27 27 27 27 28 28 28 28 28 27 27 27 27 27 27 28 28 28 28 29
46 45 44 44 45 43 42 42 41 39 38 37 36 34 33 32 31 30 30 29 28 28 28 27 28 28 27 27 27 27 27 27 27 28 28 28 28 28
47 47 46 46 46 46 45 44 43 42 41 40 38 37 36 35 34 33 32 31 30 29 29 28 28 28 27 27 27 27 27 27 27 27 27 27 27 27
49 49 48 47 47 47 47 46 45 45 44 42 41 40 39 38 36 35 34 33 32 30 30 29 29 28 28 27 27 27 27 27 28 27 26 26 27 27
50 49 48 47 47 48 49 48 47 46 46 44 43 42 41 39 38 37 35 35 33 32 31 30 30 29 28 27 27 27 27 27 27 27 27 27 27 27
49 49 48 47 47 48 50 50 48 47 47 46 44 43 43 41 40 38 37 35 34 33 32 32 31 30 29 29 28 28 27 27 27 28 28 28 28 28
49 49 49 47 47 48 49 49 48 48 48 47 46 44 44 43 42 40 39 37 36 35 34 33 32 31 31 30 29 29 29 28 28 28 29 29 29 29
48 49 48 47 46 49 49 49 48 48 49 49 47 45 44 44 43 42 40 39 38 36 35 35 33 33 33 32 31 30 30 29 28 28 28 28 28 28
46 47 47 46 45 47 49 49 49 48 48 48 47 45 44 44 44 43 42 41 39 38 37 36 35 35 34 33 32 31 30 30 29 29 29 29 29 29
44 45 46 44 43 45 46 47 48 48 47 47 47 44 43 44 43 43 42 41 41 39 38 37 37 36 35 34 33 31 31 31 30 30 30 30 30 30

GEFSNE_500_meanwind_126.txt.gz
Wind_Speed
15 14 13 12 10 9 7 7 7 8 9 11 12 14 16 18 20 21 23 24 26 27 28 29 29 29 29 28 28 28 28 27 26 25 25 25 25 24
16 16 14 13 12 11 10 9 9 9 10 11 13 15 16 18 20 21 23 24 26 27 28 29 30 30 29 29 29 29 29 28 27 27 26 26 26 26
17 17 16 15 14 13 12 12 11 11 11 12 14 16 17 18 19 20 22 23 25 27 29 30 30 30 29 29 29 29 29 29 28 28 27 27 27 26
18 18 18 17 17 15 15 15 14 14 14 14 15 16 17 18 20 21 22 23 25 27 29 30 30 30 31 31 30 31 31 30 30 29 29 29 28 28
20 20 20 20 20 19 18 18 17 17 16 17 17 18 19 20 21 23 24 25 26 27 29 31 31 31 32 32 32 32 32 31 31 30 30 29 29 29
24 24 23 23 22 22 22 21 21 20 19 19 19 20 21 21 23 24 25 26 28 29 30 31 32 32 33 33 33 33 33 32 32 32 31 31 31 30
26 27 27 27 26 25 25 24 23 23 23 22 22 22 23 23 25 25 26 27 28 29 30 31 32 32 32 33 33 34 34 34 34 33 33 33 32 32
30 30 31 30 30 29 28 28 27 27 26 25 25 25 26 26 27 28 28 29 30 31 31 32 32 33 33 32 33 33 34 34 34 34 34 33 33 33
33 34 34 34 33 32 31 31 31 31 30 29 28 28 28 29 29 30 30 30 31 32 32 33 33 33 33 34 34 33 33 34 34 33 34 34 33 33
38 38 39 38 37 36 35 35 34 34 34 34 33 32 32 32 32 32 32 32 33 33 34 34 34 34 34 34 35 34 34 34 33 33 33 34 34 34
43 43 43 43 42 41 40 39 37 37 37 38 37 36 36 35 35 35 35 35 35 35 36 35 36 36 35 34 35 35 35 34 34 33 33 34 34 35
47 47 47 47 46 45 44 43 42 41 41 40 40 39 39 38 38 37 37 37 37 36 37 37 36 36 36 36 35 35 35 35 34 34 34 34 34 34
50 50 50 50 49 48 48 47 46 45 44 44 42 41 41 42 41 40 40 39 39 38 38 37 37 38 38 37 37 36 36 36 35 35 35 34 34 34
54 53 52 51 51 50 50 49 49 48 47 47 46 45 44 44 44 43 42 42 41 40 40 40 39 39 39 39 38 37 37 37 36 36 36 35 35 34
56 55 53 52 52 51 51 50 50 50 49 48 48 47 47 47 47 46 45 44 43 42 42 42 42 41 41 40 39 39 38 38 37 36 36 35 35 34
57 56 55 54 54 53 52 51 51 51 51 50 49 48 49 48 48 48 48 46 45 44 44 43 43 43 42 40 40 40 40 39 37 37 36 35 34 34
59 57 56 56 55 54 52 52 51 51 51 51 50 50 50 50 49 49 49 48 47 46 45 45 44 44 43 42 41 40 40 39 38 38 37 36 35 35
59 57 56 56 55 52 50 49 49 49 49 50 49 49 49 50 50 49 50 50 49 47 46 46 46 45 45 43 42 40 40 39 38 38 37 36 35 35
58 57 55 53 52 50 48 47 47 47 47 49 49 50 49 50 51 50 50 50 50 49 48 47 47 47 46 44 42 42 41 40 39 37 37 36 35 35
58 56 54 52 51 49 48 47 47 46 46 48 49 50 50 50 51 51 51 51 51 50 49 49 48 48 46 45 44 43 43 42 41 39 38 37 36 36
57 56 54 52 51 49 48 48 48 46 46 48 49 51 51 50 50 50 51 51 51 50 49 49 48 48 47 47 46 45 44 43 42 40 39 38 37 36
58 56 53 52 51 50 49 49 48 47 46 47 49 50 51 50 49 49 50 50 50 49 48 47 48 48 47 46 45 45 44 43 42 40 39 38 37 36
57 55 53 51 50 49 48 47 47 46 45 45 46 49 50 50 48 47 48 49 49 49 48 47 47 48 47 46 45 44 44 43 41 40 39 38 36 36